Tracking 31027 objects as of 19-Jul-2025
HD Live streaming from Space Station
objects crossing your sky now

STARLINK-31899

Track STARLINK-31899 now!
10-day predictions
STARLINK-31899 is classified as:


NORAD ID: 59850
Int'l Code: 2024-097R
Perigee: 489.6 km
Apogee: 490.8 km
Inclination: 43.0 °
Period: 94.3 minutes
Semi major axis: 6861 km
RCS: Unknown
Launch date: May 23, 2024
Source: United States (US)
Launch site: AIR FORCE EASTERN TEST RANGE (AFETR)
Your satellite tracking list
SL-8 DEB
Track 1 satellite(s)




NASA's NSSDC Master Catalog

Two Line Element Set (TLE):
1 59850U 24097R   25198.27265998 -.00000423  00000-0 -58543-5 0  9993
2 59850  43.0007 163.7998 0000860 268.3734  91.7019 15.27576748 65913
Source of the keplerian elements: AFSPC